Date String (YYYY-MM-DD hh:mm:ss) UTC,Instrument flags,Ambient pressure (hPa),Sample flow (lpm),Bypass flow (lpm),Sample temperature (°C),Ambient temperature (°C),ASC tube jacket temperature (°C),LED temperature (°C),Box temperature (°C),Sample RH (%),Span deviation,Mass concentration (μg/m³),Mass concentration (μg/m³),Mass concentration (μg/m³)
DateTimeUTC,F1_M11,P_M11,Q1_M11,Q2_M11,T1_M11,T2_M11,T3_M11,T4_M11,T5_M11,U1_M11,ZSPAN_M11,X2_M11,X0_M11,X1_M11
2022-07-12 03:00:00,,0831.9,5.00,0.00,29.7,28.3,00.0,38.4,31.6,30.8,0000.9,0010.22,0019.32,0009.08
2022-07-12 03:01:00,,0831.9,4.99,0.00,29.7,28.5,00.0,38.4,31.7,30.7,0000.3,0010.14,0020.15,0009.00
2022-07-12 03:02:00,,0831.9,5.00,0.00,29.7,28.6,00.0,38.5,31.7,30.7,-000.1,0010.10,0021.63,0008.92
2022-07-12 03:03:00,,0831.9,5.00,0.00,29.8,28.7,00.0,38.5,31.7,30.5,0000.0,0010.07,0023.60,0008.85
2022-07-12 03:04:00,,0832.0,5.00,0.00,29.8,28.8,00.0,38.5,31.8,30.4,0000.0,0009.97,0024.04,0008.77
2022-07-12 03:05:00,,0831.9,4.99,0.00,29.8,28.5,00.0,38.5,31.8,30.3,0000.0,0009.91,0024.27,0008.68
2022-07-12 03:06:00,,0832.0,5.01,0.00,29.8,27.9,00.0,38.4,31.7,30.3,0000.0,0009.86,0024.81,0008.62
2022-07-12 03:07:00,,0832.0,5.00,0.00,29.7,27.6,00.0,38.4,31.5,30.5,0000.0,0009.80,0024.39,0008.56
2022-07-12 03:08:00,,0832.0,5.00,0.00,29.7,27.6,00.0,38.4,31.5,30.8,0000.0,0009.76,0023.95,0008.53
2022-07-12 03:09:00,,0832.1,4.99,0.00,29.6,27.7,00.0,38.4,31.5,31.0,0000.0,0009.76,0025.08,0008.52
2022-07-12 03:10:00,,0832.1,5.01,0.00,29.6,27.8,00.0,38.4,31.5,31.1,0000.0,0009.77,0025.49,0008.51
2022-07-12 03:11:00,,0832.1,5.00,0.00,29.6,28.0,00.0,38.4,31.5,31.9,0000.0,0009.77,0024.46,0008.54
2022-07-12 03:12:00,,0832.1,5.01,0.00,29.7,28.1,00.0,38.4,31.5,32.3,0000.0,0009.83,0024.39,0008.61
2022-07-12 03:13:00,,0832.1,4.99,0.00,29.7,28.3,00.0,38.4,31.6,32.3,0000.0,0009.90,0024.88,0008.69
2022-07-12 03:14:00,,0832.1,5.00,0.00,29.7,28.4,00.0,38.4,31.6,32.2,0000.0,0009.92,0023.38,0008.75
2022-07-12 03:15:00,,0832.1,5.01,0.00,29.7,28.5,00.0,38.4,31.7,32.0,0000.0,0009.96,0022.89,0008.82
2022-07-12 03:16:00,,0832.0,5.00,0.00,29.7,28.6,00.0,38.5,31.7,32.2,0000.0,0010.06,0023.38,0008.91
2022-07-12 03:17:00,,0832.1,5.00,0.00,29.8,28.7,00.0,38.5,31.8,32.4,0000.0,0010.22,0023.86,0009.03
2022-07-12 03:18:00,,0832.1,5.00,0.00,29.8,28.7,00.0,38.5,31.8,32.4,0000.0,0010.32,0024.38,0009.15
2022-07-12 03:19:00,,0832.1,4.99,0.00,29.8,28.0,00.0,38.4,31.7,32.4,0000.0,0010.50,0024.41,0009.30
2022-07-12 03:20:00,,0832.1,5.00,0.00,29.8,27.6,00.0,38.4,31.6,32.3,0000.0,0010.64,0023.95,0009.43
2022-07-12 03:21:00,,0832.1,5.00,0.00,29.7,27.5,00.0,38.4,31.5,32.3,0000.0,0010.82,0024.20,0009.57
2022-07-12 03:22:00,,0832.1,5.00,0.00,29.6,27.6,00.0,38.4,31.4,32.6,0000.0,0010.94,0025.58,0009.66
2022-07-12 03:23:00,,0832.1,5.00,0.00,29.6,27.7,00.0,38.4,31.4,32.6,0000.0,0011.01,0025.52,0009.73
2022-07-12 03:24:00,,0832.1,5.00,0.00,29.6,27.9,00.0,38.4,31.4,32.8,-000.0,0011.08,0023.80,0009.80
2022-07-12 03:25:00,,0832.2,5.01,0.00,29.6,28.0,00.0,38.4,31.5,32.9,-000.3,0011.17,0023.51,0009.88
2022-07-12 03:26:00,,0832.2,5.00,0.00,29.6,28.2,00.0,38.4,31.5,32.9,-000.4,0011.30,0024.05,0009.99
2022-07-12 03:27:00,,0832.3,4.99,0.00,29.7,28.3,00.0,38.4,31.6,33.0,-000.9,0011.39,0023.91,0010.09
2022-07-12 03:28:00,,0832.3,5.00,0.00,29.7,28.4,00.0,38.4,31.6,33.1,-001.4,0011.43,0023.07,0010.20
2022-07-12 03:29:00,,0832.2,5.01,0.00,29.7,28.5,00.0,38.5,31.7,33.1,-001.8,0011.53,0022.97,0010.28
2022-07-12 03:30:00,,0832.3,5.00,0.00,29.7,28.6,00.0,38.5,31.7,33.0,-001.9,0011.60,0023.48,0010.35
2022-07-12 03:31:00,,0832.3,5.00,0.00,29.8,28.7,00.0,38.5,31.7,33.0,-001.8,0011.69,0023.75,0010.43
2022-07-12 03:32:00,,0832.3,4.99,0.00,29.8,28.6,00.0,38.5,31.7,32.9,-001.4,0011.72,0022.45,0010.50
2022-07-12 03:33:00,,0832.3,4.99,0.00,29.8,27.8,00.0,38.4,31.6,33.0,-001.1,0011.82,0021.45,0010.59
2022-07-12 03:34:00,,0832.3,5.01,0.00,29.7,27.1,00.0,38.4,31.5,33.2,-000.8,0011.95,0021.34,0010.67
2022-07-12 03:35:00,,0832.2,5.00,0.00,29.6,26.9,00.0,38.3,31.3,33.3,-001.7,0012.05,0021.68,0010.74
2022-07-12 03:36:00,,0832.3,5.00,0.00,29.5,27.0,00.0,38.3,31.2,33.5,-001.5,0012.13,0021.75,0010.81
2022-07-12 03:37:00,,0832.3,5.01,0.00,29.5,27.1,00.0,38.3,31.2,33.7,-001.2,0012.19,0021.67,0010.88
2022-07-12 03:38:00,,0832.3,5.01,0.00,29.5,27.3,00.0,38.3,31.2,33.8,-001.0,0012.28,0021.53,0010.95
2022-07-12 03:39:00,,0832.3,5.00,0.00,29.4,27.5,00.0,38.3,31.3,33.8,-000.2,0012.32,0021.34,0010.98
2022-07-12 03:40:00,,0832.3,4.99,0.00,29.4,27.7,00.0,38.3,31.3,33.8,0000.0,0012.32,0021.02,0011.01
2022-07-12 03:41:00,,0832.4,5.00,0.00,29.5,27.8,00.0,38.3,31.3,33.8,-000.3,0012.34,0020.76,0011.03
2022-07-12 03:42:00,,0832.4,5.00,0.00,29.5,28.0,00.0,38.3,31.4,33.8,0000.0,0012.33,0020.12,0011.04
2022-07-12 03:43:00,,0832.3,5.00,0.00,29.5,28.1,00.0,38.3,31.4,33.7,-000.4,0012.37,0021.20,0011.05
2022-07-12 03:44:00,,0832.4,5.00,0.00,29.5,28.3,00.0,38.3,31.5,33.5,-000.1,0012.37,0021.77,0011.05
2022-07-12 03:45:00,,0832.3,5.01,0.00,29.6,28.4,00.0,38.3,31.5,33.4,-000.2,0012.41,0021.71,0011.07
2022-07-12 03:46:00,,0832.3,5.00,0.00,29.6,28.5,00.0,38.3,31.5,33.3,0000.5,0012.39,0021.29,0011.10
2022-07-12 03:47:00,,0832.4,5.00,0.00,29.6,28.5,00.0,38.3,31.6,33.2,0000.7,0012.42,0021.72,0011.15
2022-07-12 03:48:00,,0832.4,5.01,0.00,29.7,28.6,00.0,38.4,31.6,33.1,0000.2,0012.55,0021.89,0011.21
2022-07-12 03:49:00,,0832.4,5.01,0.00,29.7,28.7,00.0,38.4,31.7,33.0,0000.7,0012.60,0022.19,0011.25
2022-07-12 03:50:00,,0832.5,5.00,0.00,29.7,28.8,00.0,38.4,31.7,33.0,0001.3,0012.64,0022.28,0011.33
2022-07-12 03:51:00,,0832.4,5.00,0.00,29.8,28.7,00.0,38.4,31.7,32.9,0001.6,0012.71,0022.61,0011.40
2022-07-12 03:52:00,,0832.4,4.99,0.00,29.7,28.0,00.0,38.4,31.6,32.9,0002.0,0012.73,0022.28,0011.47
2022-07-12 03:53:00,,0832.4,5.01,0.00,29.7,27.2,00.0,38.3,31.5,33.0,0002.4,0012.77,0023.58,0011.54
2022-07-12 03:54:00,,0832.5,4.99,0.00,29.6,26.8,00.0,38.3,31.3,33.1,0002.4,0012.82,0023.04,0011.59
2022-07-12 03:55:00,,0832.4,5.00,0.00,29.5,26.9,00.0,38.3,31.2,33.3,0002.3,0012.92,0022.40,0011.65
2022-07-12 03:56:00,,0832.4,5.01,0.00,29.4,27.0,00.0,38.2,31.2,33.4,0001.6,0012.95,0022.30,0011.69
2022-07-12 03:57:00,,0832.4,5.00,0.00,29.4,27.2,00.0,38.2,31.2,33.4,0001.3,0013.03,0022.75,0011.73
2022-07-12 03:58:00,,0832.4,5.01,0.00,29.4,27.4,00.0,38.2,31.2,33.4,0001.4,0013.01,0021.98,0011.73
2022-07-12 03:59:00,,0832.5,5.00,0.00,29.4,27.6,00.0,38.2,31.2,33.4,0001.4,0012.95,0021.82,0011.73
